KUIPER-00268

Last updated on Sun Mar 15 2026 00:02:06 GMT+0000 (Coordinated Universal Time)

1 67790U 26030AC 26073.57097574 .00026363 00000+0 74293-3 0 9999 2 67790 51.8843 195.5484 0003424 50.8141 309.3149 15.36245784 5849
UTC large
Height (km)
Speed (km/s)
/
Latitude / Longitude
Inclination (degrees)
Orbital Period (minutes)
Azimuth
Elevation
Range (km)
Doppler Factor

Next 0 passes for location: London (51.5072 / 0.1276)

Sorry there are no passes over London.